Hourly Weather Juan les Pins

Today, 26 November, Thursday

Time Temperature Precipitation Wind Pressure Humidity
00:00 +8°C° 0 mm 4 mps 766 mmHg 71%
01:00 +8°C° 0 mm 4 mps 766 mmHg 69%
02:00 +8°C° 0 mm 4 mps 766 mmHg 66%
03:00 +8°C° 0 mm 4 mps 766 mmHg 64%
04:00 +8°C° 0 mm 4 mps 766 mmHg 62%
05:00 +8°C° 0 mm 4 mps 766 mmHg 60%
06:00 +8°C° 0 mm 4 mps 766 mmHg 59%
07:00 +10°C° 0 mm 4 mps 766 mmHg 55%
08:00 +11°C° 0 mm 4 mps 766 mmHg 52%
09:00 +13°C° 0 mm 4 mps 766 mmHg 48%
10:00 +14°C° 0 mm 5 mps 766 mmHg 47%
11:00 +14°C° 0 mm 5 mps 765 mmHg 46%
12:00 +15°C° 0 mm 5 mps 765 mmHg 45%
13:00 +15°C° 0 mm 5 mps 765 mmHg 50%
14:00 +14°C° 0 mm 5 mps 765 mmHg 55%
15:00 +14°C° 0 mm 5 mps 765 mmHg 60%
16:00 +12°C° 0 mm 4 mps 765 mmHg 63%
17:00 +11°C° 0 mm 4 mps 765 mmHg 66%
18:00 +10°C° 0 mm 4 mps 765 mmHg 69%
19:00 +10°C° 0 mm 4 mps 765 mmHg 67%
20:00 +10°C° 0 mm 4 mps 765 mmHg 66%
21:00 +10°C° 0 mm 4 mps 765 mmHg 64%
22:00 +10°C° 0 mm 4 mps 765 mmHg 64%
23:00 +10°C° 0 mm 4 mps 765 mmHg 64%

Tomorrow, 27 November, Friday

Time Temperature Precipitation Wind Pressure Humidity
00:00 +10°C° 0 mm 4 mps 765 mmHg 64%
01:00 +10°C° 0 mm 4 mps 765 mmHg 65%
02:00 +10°C° 0 mm 4 mps 764 mmHg 66%
03:00 +9°C° 0 mm 5 mps 764 mmHg 67%
04:00 +9°C° 0 mm 5 mps 764 mmHg 68%
05:00 +8°C° 0 mm 5 mps 764 mmHg 70%
06:00 +8°C° 0 mm 5 mps 764 mmHg 71%
07:00 +10°C° 0 mm 5 mps 764 mmHg 68%
08:00 +12°C° 0 mm 5 mps 764 mmHg 65%
09:00 +13°C° 0 mm 5 mps 764 mmHg 62%
10:00 +14°C° 0 mm 6 mps 763 mmHg 62%
11:00 +15°C° 0 mm 6 mps 763 mmHg 61%
12:00 +16°C° 0 mm 7 mps 763 mmHg 60%
13:00 +16°C° 0 mm 7 mps 762 mmHg 65%
14:00 +15°C° 0 mm 7 mps 762 mmHg 69%
15:00 +14°C° 0 mm 7 mps 762 mmHg 74%
16:00 +14°C° 0 mm 7 mps 762 mmHg 76%
17:00 +12°C° 0 mm 7 mps 762 mmHg 78%
18:00 +11°C° 0 mm 7 mps 762 mmHg 80%
19:00 +11°C° 0 mm 7 mps 762 mmHg 77%
20:00 +11°C° 0 mm 7 mps 762 mmHg 74%
21:00 +11°C° 0 mm 7 mps 762 mmHg 71%
22:00 +11°C° 0 mm 8 mps 762 mmHg 68%
23:00 +11°C° 0 mm 8 mps 761 mmHg 65%

Day after tomorrow, 28 November, Saturday

Time Temperature Precipitation Wind Pressure Humidity
00:00 +11°C° 0 mm 8 mps 761 mmHg 62%
01:00 +12°C° 0 mm 8 mps 761 mmHg 61%
02:00 +12°C° 0 mm 8 mps 760 mmHg 61%
03:00 +12°C° 0 mm 8 mps 760 mmHg 60%
04:00 +12°C° 0.1 mm 8 mps 760 mmHg 62%
05:00 +12°C° 0.1 mm 8 mps 759 mmHg 63%
06:00 +12°C° 0.1 mm 9 mps 759 mmHg 65%
07:00 +11°C° 0.4 mm 9 mps 759 mmHg 70%
08:00 +11°C° 0.4 mm 9 mps 759 mmHg 76%
09:00 +11°C° 0.4 mm 9 mps 759 mmHg 81%
10:00 +11°C° 0.3 mm 9 mps 759 mmHg 81%
11:00 +12°C° 0.3 mm 9 mps 758 mmHg 81%
12:00 +12°C° 0.3 mm 9 mps 758 mmHg 81%
13:00 +13°C° 0 mm 9 mps 757 mmHg 78%
14:00 +13°C° 0 mm 9 mps 757 mmHg 74%
15:00 +15°C° 0 mm 9 mps 756 mmHg 70%
16:00 +13°C° 0 mm 9 mps 756 mmHg 70%
17:00 +13°C° 0 mm 8 mps 757 mmHg 70%
18:00 +12°C° 0 mm 8 mps 757 mmHg 70%
19:00 +12°C° 0 mm 7 mps 757 mmHg 71%
20:00 +11°C° 0 mm 7 mps 757 mmHg 71%
21:00 +11°C° 0 mm 7 mps 757 mmHg 71%
22:00 +11°C° 0 mm 7 mps 757 mmHg 72%
23:00 +11°C° 0 mm 7 mps 757 mmHg 72%

29 November, Sunday

Time Temperature Precipitation Wind Pressure Humidity
00:00 +10°C° 0 mm 7 mps 757 mmHg 73%
01:00 +10°C° 0 mm 7 mps 757 mmHg 73%
02:00 +10°C° 0 mm 7 mps 757 mmHg 73%
03:00 +10°C° 0 mm 6 mps 757 mmHg 74%
04:00 +10°C° 0 mm 6 mps 757 mmHg 74%
05:00 +10°C° 0 mm 5 mps 757 mmHg 74%
06:00 +9°C° 0 mm 5 mps 757 mmHg 73%
07:00 +12°C° 0 mm 4 mps 757 mmHg 70%
08:00 +13°C° 0 mm 3 mps 758 mmHg 66%
09:00 +15°C° 0 mm 2 mps 758 mmHg 62%
10:00 +16°C° 0 mm 2 mps 758 mmHg 58%
11:00 +17°C° 0 mm 2 mps 758 mmHg 55%
12:00 +19°C° 0 mm 1 mps 758 mmHg 51%
13:00 +18°C° 0 mm 1 mps 758 mmHg 54%
14:00 +18°C° 0 mm 1 mps 758 mmHg 56%
15:00 +16°C° 0 mm 1 mps 758 mmHg 58%
16:00 +15°C° 0 mm 2 mps 758 mmHg 63%
17:00 +14°C° 0 mm 2 mps 758 mmHg 67%
18:00 +12°C° 0 mm 3 mps 759 mmHg 71%
19:00 +13°C° 0 mm 2 mps 759 mmHg 72%
20:00 +12°C° 0 mm 2 mps 759 mmHg 74%
21:00 +12°C° 0 mm 2 mps 759 mmHg 75%
22:00 +12°C° 0 mm 2 mps 760 mmHg 76%
23:00 +10°C° 0 mm 2 mps 760 mmHg 76%

30 November, Monday

Time Temperature Precipitation Wind Pressure Humidity
00:00 +10°C° 0 mm 2 mps 760 mmHg 76%
01:00 +10°C° 0 mm 2 mps 760 mmHg 77%
02:00 +10°C° 0 mm 2 mps 760 mmHg 78%
03:00 +10°C° 0 mm 2 mps 760 mmHg 78%
04:00 +10°C° 0 mm 2 mps 761 mmHg 79%
05:00 +10°C° 0 mm 2 mps 761 mmHg 79%
06:00 +10°C° 0 mm 2 mps 761 mmHg 79%
07:00 +11°C° 0.1 mm 3 mps 762 mmHg 80%
08:00 +11°C° 0.1 mm 4 mps 762 mmHg 81%
09:00 +12°C° 0.1 mm 4 mps 762 mmHg 82%
10:00 +12°C° 0.1 mm 5 mps 763 mmHg 84%
11:00 +11°C° 0.1 mm 6 mps 763 mmHg 86%
12:00 +11°C° 0.1 mm 6 mps 763 mmHg 88%
13:00 +10°C° 0 mm 7 mps 764 mmHg 87%
14:00 +10°C° 0 mm 7 mps 764 mmHg 86%
15:00 +10°C° 0 mm 7 mps 764 mmHg 85%
16:00 +9°C° 0 mm 7 mps 765 mmHg 84%
17:00 +9°C° 0 mm 7 mps 765 mmHg 83%
18:00 +9°C° 0 mm 7 mps 765 mmHg 82%
19:00 +9°C° 0 mm 6 mps 766 mmHg 81%
20:00 +8°C° 0 mm 6 mps 766 mmHg 80%
21:00 +8°C° 0 mm 6 mps 767 mmHg 78%
22:00 +8°C° 0 mm 5 mps 767 mmHg 78%
23:00 +8°C° 0 mm 5 mps 767 mmHg 78%

1 December, Tuesday

Time Temperature Precipitation Wind Pressure Humidity
00:00 +8°C° 0 mm 4 mps 767 mmHg 78%
01:00 +8°C° 0 mm 4 mps 767 mmHg 78%
02:00 +8°C° 0 mm 3 mps 766 mmHg 78%
03:00 +8°C° 0 mm 3 mps 766 mmHg 78%
04:00 +8°C° 0 mm 3 mps 766 mmHg 79%
05:00 +8°C° 0 mm 3 mps 766 mmHg 79%
06:00 +8°C° 0 mm 2 mps 766 mmHg 80%
07:00 +8°C° 0 mm 2 mps 766 mmHg 77%
08:00 +9°C° 0 mm 2 mps 766 mmHg 74%
09:00 +10°C° 0 mm 2 mps 766 mmHg 71%
10:00 +12°C° 0 mm 2 mps 766 mmHg 68%
11:00 +12°C° 0 mm 2 mps 765 mmHg 66%
12:00 +13°C° 0 mm 2 mps 765 mmHg 64%
13:00 +12°C° 0 mm 1 mps 765 mmHg 67%
14:00 +12°C° 0 mm 1 mps 765 mmHg 70%
15:00 +12°C° 0 mm 1 mps 765 mmHg 73%
16:00 +11°C° 0 mm 1 mps 765 mmHg 75%
17:00 +10°C° 0 mm 1 mps 765 mmHg 77%
18:00 +9°C° 0 mm 1 mps 765 mmHg 79%
19:00 +9°C° 0 mm 1 mps 765 mmHg 77%
20:00 +9°C° 0 mm 1 mps 765 mmHg 76%
21:00 +9°C° 0 mm 1 mps 765 mmHg 74%
22:00 +9°C° 0 mm 1 mps 765 mmHg 73%
23:00 +9°C° 0 mm 1 mps 765 mmHg 72%
Show more